Wetbulb
49.16 49.86 49.13 48.95 49.38 50.53 45.09 39.13 33.50 46.00 46.55 34.45 36.28 35.78 38.79 41.14 40.70 41.28 40.17 38.11 36.92 34.43 34.77 33.67 33.45 33.02 36.30 41.27 40.36 37.01 39.33 35.10 30.47 33.53 39.18 39.75 38.67 36.36 34.50 25.15 24.48 26.65 22.68 25.46
48.91 49.33 48.69 48.81 48.99 49.95 42.40 36.33 37.23 45.87 43.30 28.47 34.46 36.45 38.72 40.94 39.15 39.44 38.91 37.76 39.04 38.43 34.96 31.78 35.27 35.56 40.52 41.44 39.18 36.09 38.17 30.78 25.81 28.68 33.56 36.02 32.58 36.38 36.79 32.73 31.03 25.50 23.35 24.54
48.75 48.86 48.36 48.36 48.41 49.64 42.32 37.94 31.08 36.43 40.07 39.92 37.61 36.58 36.21 38.06 41.30 39.98 40.76 39.00 39.60 36.84 34.92 36.64 34.15 35.15 40.04 41.24 39.24 43.21 40.71 33.02 25.60 22.72 27.35 30.99 26.82 32.71 32.33 27.35 21.62 25.54 25.06 28.48
48.67 48.71 48.08 47.93 48.78 49.75 42.02 36.59 36.38 38.15 31.67 34.22 38.51 38.93 38.88 36.99 35.93 40.38 41.08 38.95 37.82 35.77 31.73 33.02 32.85 35.58 37.02 39.55 41.83 38.69 36.68 27.33 29.14 31.74 33.86 33.91 32.07 31.80 31.11 24.20 29.57 24.43 30.25 30.72
48.47 48.38 47.63 47.56 48.28 48.50 38.48 33.49 33.73 36.25 34.14 36.79 38.17 37.58 35.86 36.16 37.82 37.91 37.87 36.94 38.63 37.12 33.82 33.65 31.59 34.39 33.78 33.52 35.84 34.74 36.59 27.23 29.43 24.91 32.69 32.47 29.54 33.01 32.93 32.10 32.34 31.30 32.08 31.91
48.49 47.76 47.49 47.20 47.38 45.07 35.37 37.04 38.12 38.05 35.57 34.97 36.24 36.33 36.87 37.37 39.58 41.22 41.85 39.56 37.96 35.75 36.73 38.77 38.48 37.34 37.42 36.20 34.13 33.93 33.63 29.64 25.59 21.34 30.49 29.98 24.93 30.50 32.11 32.33 33.13 32.83 28.56 34.00
48.55 47.58 47.59 47.36 46.96 45.15 38.46 40.16 38.58 34.38 29.49 32.90 34.42 34.94 36.60 38.07 39.30 37.88 41.87 41.18 37.54 39.06 43.08 42.61 39.69 37.92 37.06 37.27 35.76 37.19 32.79 31.45 29.81 23.23 25.93 19.39 29.91 35.22 36.91 34.54 35.33 35.42 35.82 36.93
48.64 47.61 47.13 47.15 46.51 46.53 38.71 38.21 35.23 32.78 25.79 31.81 33.25 35.22 35.81 36.45 39.59 40.78 40.46 41.44 41.66 42.67 40.47 37.86 34.74 34.71 35.27 35.07 35.47 35.48 35.98 32.38 27.84 23.55 22.60 27.41 31.58 33.71 33.57 32.69 32.53 37.33 36.07 37.62
49.18 47.98 46.87 46.60 46.63 45.78 38.68 37.96 38.42 36.43 30.54 26.10 33.14 32.93 35.13 32.91 32.65 36.99 41.13 42.61 43.39 41.37 38.63 36.92 28.82 27.39 31.33 29.66 32.43 36.47 36.00 33.82 28.35 27.97 20.81 21.95 32.68 35.62 38.36 38.46 32.87 38.19 38.11 37.93
50.19 48.89 47.37 46.48 46.38 46.53 40.00 37.54 39.23 34.01 30.64 32.33 32.76 31.55 33.42 36.98 38.27 36.38 38.64 41.00 39.21 40.08 35.19 32.49 29.53 29.77 32.67 27.47 26.50 30.12 29.71 29.17 24.30 25.16 22.55 28.23 36.51 38.56 39.32 32.42 32.03 39.65 40.21 40.11
51.21 50.16 48.43 46.74 46.17 46.56 40.35 37.25 39.72 34.88 28.81 31.05 33.93 34.99 33.51 35.26 34.98 34.65 39.05 38.77 36.99 35.45 31.09 30.67 31.37 29.67 32.36 28.47 30.53 29.85 28.49 29.71 29.25 29.83 27.01 21.53 37.99 37.73 34.71 38.90 41.97 43.06 42.61 41.13
51.78 51.06 49.39 47.64 46.32 46.15 43.32 35.21 41.17 42.13 35.19 32.23 37.07 36.86 37.79 36.73 36.07 35.79 37.02 38.99 39.43 41.10 35.50 33.37 33.07 32.04 31.08 29.47 28.08 32.08 28.11 31.13 29.21 29.66 29.09 36.41 39.89 39.03 40.73 42.52 41.03 40.73 41.31 41.27
51.73 51.56 50.46 48.47 47.02 46.43 44.75 37.23 39.81 39.82 36.02 33.33 32.87 32.19 37.73 40.44 38.86 39.15 34.16 37.67 42.44 42.92 43.09 36.52 35.68 31.70 33.28 27.89 28.88 30.28 33.21 36.09 32.02 32.81 35.20 35.93 39.58 40.61 41.30 41.48 41.01 41.37 41.61 41.89
50.93 51.21 51.25 48.69 47.27 46.19 45.27 37.82 40.93 40.68 37.09 29.90 29.54 38.05 36.60 40.13 39.21 38.27 37.67 37.84 41.65 40.33 42.40 37.64 35.10 32.91 35.53 31.40 33.33 31.53 34.55 35.19 33.80 33.06 35.74 36.27 38.42 40.96 41.57 41.71 41.89 41.05 41.30 41.36
49.95 50.60 50.39 48.90 46.81 46.10 43.48 40.81 41.56 42.80 36.65 27.97 29.16 35.55 37.34 37.24 36.39 36.69 38.00 36.27 36.22 37.86 37.43 38.75 34.26 35.88 35.08 34.27 34.07 31.75 35.51 34.63 32.71 31.86 37.54 38.10 37.93 40.15 41.19 40.75 40.12 39.59 39.40 40.21
49.69 49.78 49.89 47.70 45.89 45.02 39.43 34.28 39.12 41.07 42.16 33.52 25.61 33.87 32.43 34.27 34.83 35.52 36.34 35.83 35.71 37.36 37.81 38.58 39.98 41.10 37.14 30.77 29.85 35.93 36.76 37.81 38.74 37.11 39.60 40.00 40.82 40.73 40.61 39.86 39.50 39.54 38.70 38.96
49.44 49.38 47.61 46.07 45.56 42.47 36.73 33.93 40.26 43.37 39.36 33.09 26.24 25.71 32.67 39.84 37.76 33.79 36.01 40.65 39.61 38.32 38.15 38.03 38.58 37.53 39.57 36.07 30.35 36.07 37.75 39.09 39.40 40.77 40.71 38.42 39.07 38.41 38.79 39.52 39.22 39.61 38.23 38.74
47.76 46.76 45.84 44.42 43.84 43.15 39.85 42.34 44.40 42.79 36.39 34.63 22.91 20.91 28.64 40.19 37.30 35.22 39.65 38.74 39.73 39.49 38.75 38.88 36.81 36.77 36.99 32.33 36.46 38.29 37.50 38.14 37.91 38.60 38.94 38.82 38.65 38.50 38.73 38.40 38.43 36.48 36.91 37.53
46.07 45.09 44.37 41.59 39.06 35.88 35.43 44.73 45.03 42.15 36.96 28.34 27.84 21.54 22.72 37.63 37.40 38.62 39.14 40.17 33.70 38.40 36.22 37.56 37.53 34.47 30.90 35.33 36.56 36.20 37.15 36.74 37.27 36.87 36.73 36.72 36.44 36.82 36.93 36.19 36.12 34.87 35.45 36.23
43.68 41.34 37.06 31.76 35.21 44.07 42.88 37.13 35.56 34.33 34.71 33.99 26.83 28.77 25.55 34.52 35.91 35.17 35.31 37.88 33.80 31.37 32.86 38.84 34.67 31.09 36.92 36.17 35.74 34.54 34.15 34.36 35.41 34.28 32.01 33.22 33.57 34.70 35.74 36.33 36.54 36.13 35.70 35.70
38.85 35.39 32.79 40.21 43.11 39.83 35.77 31.69 30.72 30.82 26.70 30.01 29.20 30.58 28.08 36.09 32.46 34.00 36.89 32.75 33.75 29.22 33.70 33.83 31.70 29.99 33.32 32.02 31.49 32.60 33.68 35.26 35.25 35.69 35.62 35.78 34.77 35.76 35.76 36.10 36.68 36.54 37.44 37.64
37.93 37.42 40.09 39.42 36.05 32.91 29.47 28.81 30.67 28.12 24.07 31.35 30.63 34.22 33.45 34.64 38.92 34.43 35.01 32.00 31.93 28.95 36.81 33.19 27.50 31.71 30.05 30.42 30.45 31.30 32.86 35.19 35.42 35.67 34.85 34.71 34.62 34.15 34.17 34.56 35.75 36.33 36.00 35.21
38.17 34.48 32.17 32.14 31.58 22.88 23.74 16.90 22.95 26.14 32.58 33.70 33.95 32.03 35.04 35.93 36.08 34.37 33.71 30.62 29.76 35.53 31.31 27.81 28.75 30.53 29.98 29.59 32.24 32.76 34.26 34.12 33.04 32.71 33.51 34.20 33.98 34.50 34.55 34.31 35.14 34.79 34.52 34.85
29.00 20.88 15.73 23.79 20.15 24.59 24.78 28.83 29.07 32.66 33.62 33.31 34.58 33.24 33.46 35.80 33.07 33.70 30.87 33.11 32.56 27.12 26.13 24.06 29.69 33.07 32.43 33.93 33.91 33.77 33.72 33.85 33.34 32.85 33.11 33.33 33.05 33.19 34.01 34.19 33.62 32.48 32.06 32.69
29.57 29.13 21.20 20.81 25.53 25.63 27.44 31.76 31.15 31.07 35.09 34.10 33.45 32.52 34.90 32.34 31.36 33.07 31.52 29.88 24.94 27.63 28.37 32.37 33.09 32.21 32.03 31.99 32.38 32.22 32.00 32.69 32.88 33.21 31.45 31.42 31.93 31.94 31.77 32.56 32.57 31.13 30.79 30.93
29.73 29.86 25.42 25.50 20.05 18.97 25.69 28.75 28.21 34.49 34.93 33.52 33.82 31.00 30.03 29.20 30.42 24.91 23.12 25.82 27.24 29.67 31.67 30.14 31.82 32.70 32.85 33.27 33.31 32.97 32.48 31.80 31.22 31.29 30.87 30.84 29.72 28.87 29.78 31.39 30.67 30.09 30.21 29.26
18.62 16.82 25.02 23.14 22.54 22.39 27.89 30.58 31.32 35.19 33.16 28.96 27.53 26.85 27.72 30.26 25.08 22.58 25.61 28.10 30.79 30.98 30.41 26.99 28.59 28.86 29.92 32.49 33.44 34.14 31.54 29.19 28.75 27.39 27.87 27.62 26.80 26.81 26.82 25.42 26.67 27.47 28.26 28.44
MSLP
1020.36 1019.58 1018.90 1017.96 1017.01 1015.67 1015.35 1015.29 1015.36 1014.71 1014.92 1015.40 1015.71 1015.51 1014.77 1013.65 1012.85 1012.48 1012.32 1012.17 1010.92 1010.37 1010.05 1010.06 1010.17 1010.43 1010.01 1009.59 1009.33 1009.51 1010.06 1011.79 1013.43 1014.02 1013.90 1014.07 1014.14 1014.41 1014.54 1015.07 1015.56 1015.01 1014.62 1012.66
1020.36 1019.65 1019.04 1018.22 1017.39 1016.78 1016.73 1016.63 1015.99 1014.69 1014.89 1016.01 1016.07 1015.03 1014.10 1013.32 1012.67 1012.03 1011.34 1011.11 1010.52 1010.05 1009.98 1010.21 1010.10 1010.24 1010.02 1009.62 1009.51 1009.92 1010.32 1011.69 1013.26 1014.03 1014.18 1013.84 1013.69 1013.93 1014.09 1014.41 1014.50 1014.35 1014.18 1012.75
1020.58 1020.00 1019.14 1018.35 1017.59 1016.85 1016.81 1017.08 1017.27 1016.51 1015.62 1015.65 1015.57 1014.96 1013.91 1012.98 1012.21 1011.91 1011.19 1010.79 1010.32 1010.08 1010.06 1010.01 1010.25 1010.28 1010.10 1009.73 1009.72 1009.81 1010.01 1011.37 1012.37 1012.96 1012.62 1012.79 1013.38 1013.33 1013.74 1014.09 1014.65 1013.84 1013.03 1012.43
1020.73 1020.30 1019.59 1018.54 1017.63 1016.80 1016.91 1017.91 1018.65 1018.54 1017.79 1016.53 1015.66 1014.79 1014.14 1013.25 1012.66 1011.85 1011.14 1010.69 1010.87 1010.74 1010.53 1010.51 1010.60 1010.38 1010.20 1009.95 1009.77 1009.80 1010.44 1011.91 1012.41 1012.53 1012.43 1012.56 1012.80 1012.97 1013.32 1013.77 1013.44 1013.01 1012.31 1011.72
1020.85 1020.36 1019.78 1018.95 1018.07 1017.27 1018.09 1019.12 1019.29 1018.81 1018.05 1016.99 1015.94 1015.39 1014.56 1013.84 1013.04 1012.55 1011.74 1011.45 1011.12 1011.01 1011.22 1011.24 1010.86 1010.31 1010.16 1010.00 1010.09 1010.23 1010.74 1012.03 1012.60 1012.95 1012.66 1012.59 1012.69 1012.60 1012.82 1012.99 1012.83 1012.48 1011.95 1011.17
1020.97 1020.69 1020.17 1019.62 1018.95 1018.28 1019.31 1019.55 1019.10 1018.82 1017.80 1016.55 1015.75 1015.30 1015.00 1014.29 1013.48 1012.40 1011.95 1011.60 1011.40 1011.23 1011.21 1011.03 1010.82 1010.37 1010.17 1010.11 1010.31 1010.63 1011.24 1012.14 1012.97 1013.22 1012.79 1012.64 1012.41 1011.63 1011.86 1012.02 1011.84 1011.72 1011.55 1010.62
1021.04 1020.82 1020.45 1020.22 1019.68 1019.50 1020.13 1020.56 1020.48 1019.92 1018.31 1017.10 1016.18 1015.55 1015.10 1014.37 1013.70 1012.86 1012.01 1011.62 1011.30 1011.30 1010.97 1010.78 1010.41 1010.26 1010.19 1010.14 1010.34 1010.67 1011.33 1012.13 1012.76 1013.17 1012.92 1012.40 1010.95 1010.42 1010.40 1010.90 1010.96 1011.00 1010.69 1010.33
1021.00 1020.92 1020.59 1020.04 1019.97 1019.75 1020.28 1020.52 1020.73 1020.45 1019.49 1017.58 1016.06 1015.43 1014.65 1014.30 1013.69 1012.43 1011.77 1011.68 1011.42 1011.12 1011.14 1011.11 1010.91 1010.81 1010.57 1010.56 1010.70 1010.97 1011.30 1011.95 1012.77 1013.22 1013.12 1011.82 1010.80 1010.28 1010.13 1010.26 1010.32 1010.07 1010.24 1010.28
1020.67 1020.64 1020.45 1020.08 1020.14 1019.77 1019.79 1019.96 1020.15 1020.74 1020.24 1017.86 1016.82 1015.62 1014.88 1014.43 1013.87 1013.30 1011.72 1011.57 1011.32 1011.20 1011.37 1011.55 1011.36 1010.99 1010.49 1010.72 1010.77 1011.02 1011.43 1011.94 1012.73 1013.06 1012.89 1011.62 1010.20 1009.61 1009.36 1009.49 1009.82 1009.47 1009.60 1010.07
1020.23 1020.25 1020.17 1020.19 1020.24 1020.14 1020.02 1020.05 1020.13 1020.71 1020.69 1018.53 1017.72 1016.32 1015.85 1014.72 1014.45 1014.12 1012.86 1012.16 1011.85 1011.54 1011.79 1012.09 1011.71 1011.13 1010.66 1010.80 1010.89 1011.27 1011.77 1012.21 1012.69 1012.71 1012.22 1010.93 1009.81 1009.50 1009.38 1009.71 1010.01 1009.42 1009.58 1010.04
1019.94 1020.02 1020.00 1019.83 1019.85 1019.81 1020.18 1019.95 1019.78 1020.11 1020.12 1018.46 1017.61 1016.88 1016.25 1015.50 1015.12 1014.80 1013.96 1012.77 1012.59 1012.42 1012.37 1012.33 1011.80 1011.51 1010.87 1010.84 1010.78 1010.94 1011.30 1011.65 1011.94 1011.97 1011.58 1010.78 1009.65 1009.68 1009.61 1009.32 1009.35 1009.47 1009.77 1010.12
1019.13 1019.33 1019.36 1019.30 1019.29 1019.43 1019.90 1020.04 1019.17 1019.27 1019.50 1018.08 1017.14 1016.75 1016.59 1016.15 1015.81 1015.79 1014.86 1013.76 1012.98 1012.42 1012.48 1012.39 1012.01 1011.64 1011.25 1011.07 1010.94 1010.66 1010.94 1010.87 1011.00 1010.99 1010.53 1009.75 1009.52 1009.30 1009.22 1009.30 1009.57 1009.80 1010.01 1010.34
1018.32 1018.53 1018.75 1018.77 1018.95 1018.89 1019.30 1019.98 1019.64 1019.24 1018.83 1017.29 1016.51 1015.52 1014.89 1014.97 1014.91 1015.40 1015.85 1014.14 1013.17 1012.88 1012.85 1012.78 1012.33 1011.84 1011.36 1011.31 1011.03 1010.74 1010.43 1010.19 1010.48 1010.46 1009.89 1009.56 1009.40 1009.39 1009.38 1009.38 1009.74 1010.01 1010.24 1010.46
1017.79 1017.81 1017.84 1017.88 1018.66 1018.70 1018.92 1019.81 1019.34 1019.55 1018.85 1017.77 1015.90 1014.63 1014.59 1014.21 1014.48 1014.79 1014.77 1014.43 1014.03 1013.80 1013.15 1012.82 1012.49 1011.98 1011.13 1011.20 1010.93 1010.88 1010.47 1010.21 1010.24 1010.21 1009.80 1009.68 1009.48 1009.57 1009.79 1010.01 1010.21 1010.44 1010.61 1010.74
1017.16 1017.17 1017.13 1017.49 1018.15 1018.25 1018.33 1018.58 1018.45 1018.95 1019.43 1018.46 1016.41 1014.79 1013.45 1013.28 1013.39 1013.76 1014.10 1014.38 1014.57 1014.36 1013.72 1012.90 1012.38 1011.53 1011.27 1011.12 1011.04 1010.59 1010.08 1009.91 1010.12 1010.12 1009.74 1009.71 1010.07 1010.12 1010.20 1010.41 1010.68 1010.84 1010.96 1010.99
1016.86 1016.50 1016.44 1017.34 1017.81 1018.04 1018.77 1018.83 1018.46 1018.62 1018.17 1018.60 1017.12 1014.85 1013.53 1012.82 1012.83 1013.03 1013.22 1013.89 1014.39 1014.39 1013.71 1012.83 1011.94 1010.95 1010.98 1011.20 1010.93 1009.84 1009.42 1009.25 1009.33 1009.61 1009.67 1009.85 1010.24 1010.53 1010.61 1010.89 1011.06 1011.18 1011.29 1011.36
1016.37 1015.86 1016.65 1017.69 1017.83 1018.28 1018.79 1018.52 1018.44 1018.60 1019.15 1019.09 1017.55 1015.69 1013.85 1012.65 1012.47 1013.22 1013.31 1013.48 1013.66 1013.70 1013.46 1012.54 1012.13 1011.52 1010.96 1011.08 1010.61 1009.58 1009.20 1009.03 1009.26 1009.40 1009.81 1010.38 1010.64 1010.90 1011.00 1011.18 1011.36 1011.47 1011.57 1011.59
1016.56 1016.65 1017.09 1017.62 1017.95 1018.16 1018.12 1017.87 1018.05 1018.24 1018.89 1019.47 1018.51 1016.53 1014.67 1013.33 1012.58 1012.96 1012.77 1012.84 1013.15 1012.75 1012.54 1012.02 1011.65 1011.45 1011.19 1010.70 1009.87 1009.29 1009.28 1009.40 1009.61 1009.92 1009.97 1010.34 1010.88 1011.19 1011.40 1011.58 1011.79 1011.93 1012.04 1012.01
1016.85 1016.96 1017.03 1017.54 1018.05 1018.40 1018.51 1017.63 1017.69 1018.51 1018.95 1018.71 1018.20 1017.10 1015.15 1013.56 1012.83 1012.71 1012.45 1012.44 1012.55 1012.17 1011.80 1011.57 1011.36 1010.96 1010.64 1009.86 1009.75 1009.81 1009.88 1009.97 1010.27 1010.74 1010.93 1011.15 1011.42 1011.69 1011.86 1011.95 1012.12 1012.35 1012.46 1012.45
1017.21 1017.16 1017.57 1017.76 1017.99 1017.90 1017.78 1017.93 1018.52 1018.91 1018.92 1018.51 1017.80 1016.66 1015.62 1014.57 1013.21 1012.73 1012.67 1012.21 1011.89 1011.69 1011.44 1011.10 1010.98 1010.51 1010.02 1010.09 1010.26 1010.37 1010.51 1010.63 1010.81 1011.31 1011.72 1011.88 1012.05 1012.28 1012.45 1012.45 1012.53 1012.63 1012.68 1012.71
1017.48 1017.33 1017.62 1017.89 1017.97 1018.18 1018.21 1018.02 1018.16 1018.59 1018.43 1017.58 1016.56 1016.07 1015.39 1014.49 1013.53 1012.70 1012.44 1011.71 1011.60 1011.33 1010.85 1010.99 1011.04 1010.70 1010.59 1011.05 1011.39 1011.41 1011.43 1011.43 1011.66 1011.76 1012.14 1012.43 1012.66 1012.81 1012.88 1012.79 1012.73 1012.78 1012.68 1012.59
1017.36 1017.70 1017.87 1018.36 1018.40 1018.53 1018.53 1018.05 1017.87 1017.70 1016.94 1016.17 1015.70 1014.97 1014.50 1013.83 1012.92 1012.65 1012.12 1011.54 1011.47 1010.89 1010.90 1011.14 1011.17 1011.06 1011.57 1011.82 1012.11 1012.17 1012.14 1012.15 1012.45 1012.56 1012.82 1013.08 1013.24 1013.33 1013.31 1013.21 1013.07 1013.04 1012.94 1012.75
1017.50 1018.01 1018.53 1018.81 1018.78 1018.47 1017.84 1017.67 1017.77 1017.03 1016.25 1015.80 1015.28 1014.63 1013.86 1013.21 1012.86 1012.36 1011.84 1011.50 1011.28 1011.20 1011.21 1011.25 1011.14 1011.65 1012.11 1012.47 1012.60 1012.75 1012.69 1012.88 1013.19 1013.46 1013.64 1013.74 1013.80 1013.73 1013.63 1013.55 1013.48 1013.40 1013.18 1012.91
1018.04 1018.50 1018.80 1018.79 1018.55 1018.27 1017.25 1016.79 1016.85 1016.99 1016.34 1015.74 1015.26 1014.51 1013.97 1013.03 1012.56 1012.09 1011.73 1011.65 1011.51 1011.61 1011.69 1011.69 1011.57 1011.78 1012.44 1012.90 1013.07 1013.24 1013.49 1013.68 1013.93 1014.07 1014.12 1014.16 1014.17 1014.12 1014.12 1014.08 1013.98 1013.82 1013.52 1013.28
1018.12 1018.67 1018.93 1018.71 1017.83 1017.56 1016.86 1017.11 1017.03 1016.73 1016.34 1015.75 1015.13 1014.58 1013.94 1013.25 1012.76 1012.33 1012.02 1011.83 1011.71 1011.68 1011.80 1012.04 1012.14 1012.29 1012.66 1013.26 1013.44 1013.65 1013.88 1014.11 1014.29 1014.42 1014.47 1014.48 1014.51 1014.53 1014.48 1014.39 1014.32 1014.16 1013.90 1013.57
1018.70 1018.55 1018.55 1018.10 1017.97 1017.89 1017.47 1016.91 1016.86 1016.40 1016.23 1015.81 1015.32 1014.70 1014.09 1013.54 1013.21 1012.81 1012.38 1012.31 1012.11 1012.54 1012.75 1012.92 1013.00 1013.10 1013.46 1013.65 1013.77 1014.02 1014.30 1014.47 1014.64 1014.65 1014.66 1014.75 1014.80 1014.77 1014.65 1014.52 1014.50 1014.34 1014.07 1013.85
1019.33 1019.06 1018.38 1018.31 1017.97 1017.59 1017.19 1016.80 1016.65 1016.41 1016.41 1016.12 1015.77 1015.29 1014.55 1014.09 1013.61 1013.18 1012.81 1013.01 1013.30 1013.49 1013.57 1013.59 1013.39 1013.62 1013.91 1014.11 1014.19 1014.37 1014.56 1014.68 1014.85 1014.88 1014.93 1015.00 1014.96 1014.81 1014.81 1014.82 1014.75 1014.52 1014.22 1014.01
Wind_Speed
20 22 25 27 28 26 8 2 4 1 3 6 3 3 7 2 6 4 5 5 4 4 7 7 5 3 2 7 4 4 3 6 4 2 6 10 6 5 4 5 5 3 2 5
19 22 25 27 28 22 2 3 1 3 4 5 5 6 5 3 3 4 3 4 4 4 5 4 3 3 5 7 3 2 3 3 5 3 2 3 5 9 5 2 2 4 5 5
18 20 24 26 29 26 4 3 5 5 4 1 2 3 5 9 3 4 4 4 6 4 5 6 2 2 2 4 2 4 2 3 6 7 5 5 4 6 5 5 3 4 5 5
17 19 21 24 27 27 4 5 2 2 5 5 8 3 4 7 8 5 5 1 7 5 2 2 2 2 2 1 3 3 4 3 2 2 4 4 5 4 7 4 4 5 1 3
15 17 19 22 25 21 6 3 2 3 3 9 5 5 4 6 7 3 6 4 8 6 3 2 3 1 2 1 1 1 3 2 3 2 3 3 3 6 7 5 4 4 4 4
13 14 15 19 22 13 4 3 2 2 4 4 2 1 2 6 9 6 0 3 4 2 2 5 5 2 2 2 2 1 2 4 3 3 3 0 5 10 9 6 5 6 6 7
10 12 13 15 17 13 2 4 2 3 4 1 1 4 7 9 9 6 9 4 3 2 5 6 2 1 2 4 3 1 2 3 3 2 2 1 6 1 8 9 8 8 4 4
8 8 9 9 11 13 3 2 2 1 5 4 6 4 1 7 10 4 2 0 3 3 3 1 1 2 2 3 2 4 3 2 2 3 3 4 2 3 5 7 7 7 8 5
7 7 6 6 6 7 3 1 3 1 3 5 4 3 4 2 3 6 2 2 3 1 1 1 1 3 3 3 1 1 3 3 4 2 2 4 2 2 1 3 4 5 8 7
11 9 6 5 6 5 2 2 3 2 4 6 6 2 4 4 2 3 4 4 4 2 0 1 4 3 2 3 3 4 1 1 4 2 2 6 1 3 3 3 4 2 5 5
13 13 8 5 5 6 2 3 4 4 3 8 6 5 3 4 2 2 4 3 2 2 1 3 2 1 3 1 4 6 5 4 3 3 3 6 4 2 3 3 3 4 3 3
15 14 12 9 6 4 4 2 2 3 4 8 8 14 15 10 6 4 4 3 2 2 2 0 1 2 0 3 2 1 2 6 4 7 6 4 5 2 3 3 4 3 4 3
18 17 17 13 10 7 5 2 3 2 4 7 3 5 7 11 14 12 4 4 3 1 1 1 3 2 3 2 3 2 2 3 1 3 1 5 6 2 2 2 3 4 3 4
15 18 18 13 10 5 3 2 2 2 3 4 6 3 4 6 5 9 12 8 5 4 3 1 3 2 2 3 2 3 4 3 3 3 5 2 4 4 5 5 4 3 1 1
14 15 14 13 8 5 4 3 4 4 2 4 7 14 12 5 8 11 11 11 8 2 3 2 3 2 1 1 2 3 4 6 4 4 3 3 1 4 4 5 4 3 2 4
13 15 10 14 9 4 2 3 3 2 3 3 6 4 6 7 4 8 11 8 3 3 4 3 4 4 2 2 3 6 4 4 5 5 3 3 6 5 2 5 3 2 2 3
13 7 18 11 8 3 2 2 2 3 2 2 6 5 5 4 3 1 3 7 3 4 3 3 2 3 0 1 4 4 5 6 6 7 6 3 1 4 4 4 2 1 2 3
15 17 15 10 3 2 3 3 8 4 2 2 3 6 5 3 1 3 4 5 3 4 2 2 3 1 3 5 7 10 4 6 4 5 4 5 6 4 4 3 2 3 3 4
17 15 13 4 2 0 3 6 2 2 1 2 2 3 4 3 1 3 3 3 4 3 5 3 3 3 5 6 7 2 3 4 7 5 6 5 4 3 2 1 4 3 3 4
12 3 2 2 2 5 3 3 2 1 2 3 4 3 4 3 2 1 2 2 2 3 5 3 3 4 3 3 4 5 6 6 5 4 2 3 3 3 2 2 1 2 2 4
1 2 2 1 2 1 1 0 2 2 3 4 4 5 4 3 3 2 2 1 2 3 2 5 2 4 2 5 6 5 5 5 5 5 4 4 3 2 3 3 2 3 4 4
4 4 3 1 1 1 2 2 2 4 4 2 3 3 5 4 3 3 2 2 1 2 3 2 3 1 3 4 4 4 5 6 7 6 5 5 4 4 4 4 4 5 6 6
3 3 2 1 1 1 3 2 4 2 1 2 3 4 3 2 2 3 2 3 1 1 1 3 2 1 2 4 4 5 6 7 7 6 4 4 4 4 3 4 4 5 6 6
3 4 2 5 3 5 3 1 1 2 4 6 5 4 2 2 2 1 2 1 1 2 2 4 2 3 5 4 3 5 5 5 5 5 5 5 5 5 5 5 5 6 6 8
2 3 4 5 3 2 2 2 1 2 3 5 4 3 2 3 3 1 1 2 2 2 1 2 2 3 4 4 3 4 4 3 3 2 2 2 3 3 3 4 4 4 5 5
1 3 3 2 3 3 1 1 3 2 3 4 2 3 3 2 3 1 3 2 2 2 3 2 1 2 3 3 4 4 3 3 1 2 2 2 3 3 4 3 3 4 4 5
1 4 2 1 1 2 2 2 2 2 2 2 2 3 2 3 3 3 1 2 2 2 3 2 1 3 4 3 3 4 4 3 2 0 2 2 3 4 4 4 4 5 4 4
Wind_Direction
355 354 353 352 352 352 21 29 50 226 111 45 350 5 320 271 297 155 245 241 265 331 5 17 75 80 48 345 329 52 38 118 116 173 185 169 168 179 192 139 206 199 177 269
356 357 357 353 353 357 337 35 309 345 89 67 14 303 294 248 288 311 312 319 328 319 355 65 78 58 354 358 41 128 169 110 102 99 52 235 216 175 229 173 66 212 157 263
0 360 358 355 352 349 88 62 24 327 6 183 198 309 301 344 260 268 322 287 321 335 34 29 84 99 341 343 44 313 118 84 150 180 183 140 185 193 162 144 127 193 208 134
3 0 1 359 355 348 72 30 66 102 331 322 321 23 345 351 6 331 336 74 11 324 337 57 90 123 214 279 311 4 99 124 118 110 111 125 186 191 172 148 210 148 245 136
1 360 3 4 1 354 74 87 31 343 263 292 297 41 9 318 344 293 341 21 338 32 59 18 299 317 11 177 296 33 22 148 101 327 159 163 199 222 189 206 234 267 271 282
356 359 4 9 11 16 61 327 317 190 265 305 304 58 306 298 306 283 351 317 320 48 293 305 282 278 135 88 140 178 104 128 105 254 197 24 301 217 197 190 192 160 193 220
344 355 3 12 13 29 103 14 333 336 275 265 306 325 293 301 318 286 286 354 328 248 322 315 275 354 81 62 21 101 136 138 127 193 65 268 241 146 198 179 200 206 238 221
316 340 356 5 13 21 93 347 51 348 282 267 280 325 310 310 306 285 254 321 219 308 320 332 193 224 230 142 69 20 80 121 112 132 210 275 239 228 157 165 246 203 202 184
278 297 318 341 353 11 80 139 136 350 308 256 331 267 257 243 301 317 210 248 246 309 81 329 232 224 211 202 184 33 21 68 121 139 144 225 221 198 112 101 221 290 171 188
265 259 275 316 327 335 100 247 114 98 287 284 346 328 317 315 335 271 302 334 318 55 98 179 219 235 156 175 187 159 185 301 146 271 232 287 211 150 71 181 214 109 121 149
261 266 268 276 296 300 119 253 179 130 237 280 266 300 303 308 280 260 342 335 314 358 158 176 252 242 222 66 162 164 171 167 187 216 239 276 144 98 204 191 99 115 95 83
254 250 241 239 245 254 146 248 235 195 201 253 269 267 268 256 261 311 288 300 308 260 224 290 308 272 66 183 227 7 212 182 188 170 215 228 185 164 145 141 148 137 132 132
259 244 237 225 232 222 222 244 279 303 273 278 255 258 247 225 226 223 246 271 331 37 333 217 257 257 127 193 245 231 271 174 173 41 287 197 169 114 93 91 124 115 120 141
305 283 259 203 232 249 223 202 242 260 297 282 276 312 309 286 287 214 216 267 341 315 296 282 253 224 146 219 205 145 217 104 194 262 292 234 235 151 149 107 93 96 55 254
302 295 272 200 184 230 237 218 219 211 231 286 292 301 280 232 236 235 215 227 236 325 320 242 237 246 110 303 71 235 186 194 162 224 244 145 167 143 129 110 104 75 27 332
297 298 281 163 173 135 35 336 5 355 170 303 295 303 293 302 252 219 186 192 173 215 214 213 284 276 134 200 214 247 217 198 173 179 143 116 136 126 105 112 93 52 350 308
297 269 140 142 135 130 201 195 110 33 58 278 291 297 276 294 109 113 132 174 187 182 226 233 227 283 65 259 217 260 229 191 154 152 123 129 90 161 115 115 99 51 326 292
121 123 127 123 107 302 258 241 214 145 106 266 287 276 305 15 229 174 190 164 176 191 234 258 203 250 196 242 230 241 249 214 149 150 98 126 130 107 95 91 50 16 336 313
121 110 103 91 97 207 252 275 149 96 154 267 247 266 296 352 317 266 140 182 169 231 203 221 184 210 220 221 223 192 155 143 152 96 91 87 87 87 79 76 46 37 346 345
113 74 87 87 208 189 107 37 119 275 217 209 255 269 278 339 286 296 203 246 212 197 228 175 227 249 233 57 64 106 112 107 123 126 129 80 87 55 22 28 344 297 298 323
48 104 103 91 29 105 294 168 189 192 255 220 233 228 240 265 245 280 238 198 182 233 175 193 235 259 144 91 86 81 84 86 72 95 99 71 51 5 337 336 342 323 315 299
132 107 81 43 191 212 254 227 187 203 245 224 239 269 211 248 235 233 242 240 207 206 131 217 255 280 106 113 105 94 90 91 85 67 66 37 14 353 324 318 328 331 319 306
76 76 110 190 162 233 196 219 270 260 284 329 296 308 296 291 181 231 235 228 214 81 142 235 234 185 123 136 120 89 75 77 72 61 58 54 24 13 3 342 348 330 318 316
105 127 138 192 216 238 196 258 48 324 287 316 304 293 283 279 273 280 264 65 142 178 231 236 270 185 145 119 96 109 99 95 97 79 52 40 26 13 10 5 348 335 334 328
168 174 219 219 221 270 190 154 255 268 286 297 292 288 251 287 302 305 275 203 247 234 265 337 351 120 138 144 133 127 121 120 107 77 32 6 6 354 353 351 349 338 328 329
9 232 242 262 73 305 260 253 245 235 291 295 237 278 272 256 290 352 247 335 346 26 324 303 343 134 154 158 143 140 131 92 42 331 354 3 7 328 305 330 355 339 338 338
119 273 237 167 255 201 285 277 268 293 311 300 305 274 265 310 291 292 60 28 348 315 303 297 277 174 178 152 144 158 176 178 179 22 12 345 347 343 28 7 339 334 326 322